RH
38 37 37 43 43 46 52 53 59 61 67 73 75 73 76 71 68 68 59 59 61 63 70 74 72 72 76 78 71 73 74 78 77 86 86 83 75 70 63 62 60 58 59
45 43 47 53 52 53 57 58 59 62 67 74 75 76 76 74 74 73 67 65 64 67 65 75 77 75 80 78 75 70 78 78 76 82 86 91 76 73 64 62 60 62 56
39 35 42 51 53 59 67 60 64 66 68 71 75 74 73 73 74 71 73 68 61 64 68 71 75 77 78 83 80 74 75 85 79 75 81 89 86 73 62 64 65 58 60
32 34 38 45 58 65 67 58 55 56 53 58 66 67 70 70 67 67 65 60 54 56 60 66 70 75 79 80 82 57 73 76 86 80 65 73 79 89 84 68 63 55 50
40 42 45 49 57 60 62 56 52 53 56 56 58 68 68 68 65 65 62 59 58 55 57 62 64 69 74 77 78 80 82 85 84 84 80 77 80 79 89 84 76 66 59
45 46 46 48 57 59 57 56 53 51 52 56 54 58 62 65 66 64 66 67 65 64 60 58 65 66 68 72 76 78 81 83 84 82 79 78 82 82 87 89 83 78 66
50 54 54 56 57 59 52 46 52 54 50 52 53 52 56 58 60 60 64 62 66 64 64 61 64 67 65 66 68 72 77 80 84 84 84 79 76 74 75 80 79 85 73
49 54 56 57 52 52 49 47 49 52 51 52 53 52 53 61 60 59 60 63 62 63 58 61 62 60 60 63 65 72 74 72 82 84 85 84 81 77 76 82 86 85 81
50 51 52 51 50 50 51 50 50 48 49 52 55 52 55 57 59 57 57 62 58 49 52 58 59 59 60 61 63 70 73 74 77 81 85 83 82 83 81 82 86 92 90
45 46 47 48 50 50 52 52 49 49 47 50 51 49 56 56 57 58 58 57 57 56 57 56 56 56 58 60 62 69 69 71 74 68 78 79 79 81 84 88 89 92 94
44 42 42 41 45 50 54 54 50 48 50 51 51 54 59 58 56 59 58 56 57 56 56 55 55 55 56 57 62 65 66 68 70 70 71 73 74 76 84 86 90 89 85
45 47 45 43 42 48 47 48 49 49 52 51 53 55 56 56 56 58 57 58 58 57 56 55 54 53 52 55 61 67 67 70 71 69 71 72 60 76 80 80 79 78 76
49 48 47 46 44 42 41 39 43 46 50 50 54 56 57 57 57 55 53 54 56 56 60 57 60 56 57 58 59 62 66 70 74 74 73 71 73 79 79 80 77 74 72
49 49 48 47 48 45 44 44 40 42 46 47 50 55 58 58 56 54 53 54 52 54 55 58 57 58 56 55 58 56 68 77 72 76 76 74 74 74 80 82 84 86 88
50 52 49 45 41 38 44 49 45 42 41 43 49 51 53 53 54 56 57 54 52 48 55 55 57 58 53 46 59 65 74 80 80 75 70 74 76 80 78 71 79 85 86
45 45 36 29 30 29 26 24 24 27 38 44 47 47 50 51 54 55 51 50 54 55 57 59 61 66 48 55 63 67 79 80 78 78 73 72 75 75 75 74 77 81 82
36 31 31 29 28 31 29 31 30 32 37 45 43 46 43 44 50 49 48 47 48 50 52 54 58 61 62 60 61 64 73 80 81 78 75 72 62 74 72 72 80 77 78
29 31 34 36 36 36 37 37 38 37 37 42 43 49 43 46 49 47 44 41 42 45 48 51 54 58 50 61 61 62 72 81 80 74 76 78 74 71 68 68 79 80 78
40 41 44 45 44 44 43 43 44 45 45 44 52 51 38 36 36 41 42 44 49 51 49 45 50 54 50 58 61 62 66 71 75 73 72 76 77 73 71 70 81 80 81
45 47 47 43 45 44 44 48 46 49 52 52 50 38 43 46 45 45 46 45 48 45 44 42 40 46 43 52 57 55 74 78 71 74 72 70 71 74 73 62 74 84 81
43 42 41 40 38 38 37 42 46 50 48 46 42 46 44 47 46 46 45 46 46 45 45 41 38 36 36 36 52 54 47 64 70 68 66 69 66 70 71 65 73 81 76
45 40 36 32 28 31 33 34 38 41 44 46 46 47 41 38 33 40 42 42 42 48 49 47 45 41 37 47 49 54 56 61 61 61 58 64 72 73 74 73 72 71 75
39 37 32 29 27 26 28 30 30 32 34 36 38 37 34 32 32 39 42 42 38 42 44 45 45 44 39 40 52 56 55 58 60 59 63 70 72 74 75 74 74 74 78
40 32 30 29 28 26 26 29 29 30 32 35 38 36 35 34 32 34 37 41 38 39 38 41 45 46 45 43 43 48 57 58 64 67 79 71 71 72 72 73 78 82 80
31 30 30 31 32 31 31 30 31 32 35 36 36 37 35 37 38 37 37 37 36 39 39 43 46 51 52 46 50 52 56 69 68 70 75 80 81 87 86 84 87 88 80
31 30 30 32 33 33 32 31 32 34 38 39 39 41 42 43 45 46 46 52 57 59 60 62 62 54 61 64 66 66 68 69 67 72 85 83 86 89 87 83 73 90 88
Wind_Speed
5 5 4 2 2 3 3 4 4 5 4 4 4 4 4 4 4 4 5 5 4 5 6 4 5 5 3 3 5 3 5 3 4 2 5 6 8 8 8 6 5 5 9
6 5 6 5 4 4 4 5 5 5 4 3 3 1 3 2 3 3 4 6 6 5 3 4 4 5 4 4 5 3 3 4 1 1 4 4 4 2 6 5 5 5 6
7 5 4 7 7 7 5 4 5 6 5 5 3 4 4 4 4 4 3 4 5 5 4 4 4 5 3 4 4 4 3 3 3 3 2 3 2 4 2 3 3 4 2
6 5 7 7 5 3 4 6 6 5 5 6 5 5 3 3 3 2 3 5 6 6 6 5 5 4 4 5 4 5 3 3 4 3 3 2 1 2 4 3 3 5 6
7 6 6 6 4 4 3 3 4 4 5 5 5 4 4 3 3 4 6 6 6 6 6 6 7 6 4 4 6 6 5 3 3 3 3 3 3 3 3 5 4 3 2
7 6 5 6 4 3 3 4 5 5 5 5 5 6 6 6 5 4 4 4 4 4 5 6 5 6 5 5 4 5 6 6 5 4 4 3 3 2 1 2 4 4 4
7 6 4 4 3 2 0 1 4 2 3 4 5 4 4 5 5 4 3 5 4 3 5 6 6 5 5 5 5 5 6 6 5 6 4 4 4 3 4 5 7 4 3
4 5 4 4 3 2 0 1 2 1 3 5 5 5 5 3 4 4 4 4 3 4 5 5 6 6 7 6 6 4 4 6 5 7 6 4 4 4 3 3 3 7 5
4 5 4 3 3 3 2 1 3 3 3 3 4 4 4 5 4 6 5 3 4 4 6 6 6 7 7 7 6 4 5 5 5 6 6 6 5 5 4 4 4 3 9
4 3 4 4 4 4 2 3 3 3 3 2 3 3 4 5 5 5 6 6 5 5 6 6 6 6 6 6 6 5 6 6 5 6 6 6 5 6 5 4 4 4 5
1 4 5 4 7 5 3 3 4 3 4 3 3 5 5 6 6 6 6 6 5 6 6 6 6 6 6 6 6 6 7 7 6 6 7 9 8 6 5 4 4 6 7
3 7 8 8 2 5 4 6 5 4 4 4 5 6 6 6 6 6 7 6 6 6 6 6 6 7 7 6 6 7 6 7 7 7 7 9 8 9 7 6 9 7 7
7 7 7 7 6 3 3 3 3 5 6 6 6 6 7 7 7 7 6 7 7 7 7 6 6 7 7 7 7 6 6 6 6 7 8 9 9 9 7 8 8 8 8
5 4 6 7 7 7 7 7 7 7 7 7 7 8 8 7 7 7 7 7 7 7 7 7 7 6 7 8 7 7 5 5 7 9 10 11 10 10 10 9 9 7 8
6 5 5 6 6 8 9 10 11 12 8 8 8 8 7 6 7 7 7 7 7 8 7 7 7 7 7 7 7 6 5 5 7 8 10 12 13 15 14 9 9 8 9
8 6 7 10 9 8 8 11 14 15 15 13 7 6 5 6 7 7 7 8 8 7 7 8 7 7 7 13 15 11 5 6 8 9 10 10 15 15 17 17 16 11 11
5 7 8 11 11 10 11 11 13 14 13 8 8 5 8 10 7 7 7 8 8 7 8 8 7 8 8 15 16 16 6 7 8 9 9 9 9 13 12 15 17 15 15
10 9 8 10 10 10 10 12 13 15 15 12 11 6 9 10 7 7 8 8 7 8 7 8 8 7 9 16 17 18 8 7 9 9 9 9 11 11 12 13 12 11 11
7 7 7 9 10 10 12 11 12 13 14 14 8 9 9 6 7 7 8 8 7 7 8 8 9 8 11 17 18 15 7 8 9 8 8 9 11 15 18 12 12 12 11
7 7 9 8 8 10 8 8 11 10 12 11 9 8 7 8 9 10 10 11 9 10 9 12 11 14 14 19 19 16 5 7 6 6 8 14 14 17 17 12 10 11 11
8 9 9 9 11 11 12 12 12 12 13 11 11 10 10 9 10 12 11 11 10 10 10 11 12 12 13 14 20 21 10 7 6 6 7 6 15 17 18 18 9 11 12
10 11 10 10 13 12 11 14 15 15 14 14 12 10 11 10 11 12 12 12 11 11 11 12 12 11 13 16 18 21 20 12 7 8 8 8 16 17 18 14 18 22 18
12 11 12 13 12 13 13 15 15 13 14 12 12 11 12 12 12 12 12 10 11 10 12 11 11 11 9 8 17 20 19 17 10 7 12 19 19 20 18 18 18 17 9
11 10 14 17 17 14 14 14 15 15 16 15 12 12 11 14 14 10 10 10 11 11 11 10 10 10 9 9 8 6 5 10 9 5 6 10 16 20 17 15 10 8 7
14 15 15 15 17 16 16 16 16 15 15 14 12 12 11 13 12 11 10 10 11 11 10 10 10 9 10 11 16 14 7 5 8 14 8 8 9 9 8 7 8 7 8
16 16 17 17 17 17 16 17 16 16 15 15 12 11 10 11 10 11 11 18 21 24 24 24 19 13 21 26 27 27 24 24 24 12 9 10 10 10 8 8 11 8 11
Wind_Direction
118 109 105 101 184 97 41 42 33 360 30 6 12 355 2 345 359 10 359 343 2 4 360 326 341 351 358 323 306 310 344 311 222 256 284 262 246 237 247 234 241 261 265
147 130 135 104 56 68 51 36 32 14 28 17 336 312 286 270 267 327 6 15 3 336 329 341 332 329 330 314 313 346 320 300 347 223 270 299 342 246 251 248 223 212 242
134 110 105 82 52 34 13 36 37 23 32 5 345 354 342 357 18 360 356 340 320 339 353 335 328 320 332 312 298 290 282 281 299 264 238 322 329 354 294 256 292 296 285
80 72 73 56 58 35 23 48 54 38 32 21 23 17 19 6 340 338 343 331 1 4 359 358 357 337 316 312 296 306 258 277 288 314 277 280 279 309 319 342 339 318 293
114 108 98 107 85 63 45 69 57 57 26 34 47 43 21 340 329 4 350 2 340 358 13 22 350 340 328 307 308 305 296 271 244 251 270 259 249 250 253 277 290 304 304
136 126 148 132 115 70 38 29 49 28 33 24 22 39 17 347 357 359 354 344 336 343 3 4 349 338 333 330 316 306 304 295 280 264 264 264 264 262 253 298 267 252 265
152 163 135 81 98 97 30 184 112 46 28 25 9 17 17 356 344 351 336 337 331 334 337 342 340 324 317 320 319 311 301 287 282 279 263 244 243 253 252 264 273 271 274
120 119 136 169 178 169 346 61 53 93 28 6 353 356 7 359 341 343 327 316 322 313 326 334 328 320 326 323 318 312 297 290 289 282 273 268 255 248 232 230 270 291 285
137 150 193 224 228 206 159 297 319 340 359 359 345 350 1 348 333 327 322 313 321 320 334 324 320 321 318 309 306 303 299 296 289 280 279 267 264 263 249 241 222 232 285
120 189 218 225 239 250 210 284 307 308 305 351 337 340 327 331 317 314 308 306 312 323 309 311 307 308 304 305 309 302 296 298 294 292 284 275 269 249 250 238 237 216 225
335 267 280 272 215 190 205 245 269 282 298 329 327 319 307 305 304 300 297 303 304 302 298 296 295 295 296 300 305 301 295 290 291 287 287 294 291 268 249 238 229 228 220
360 13 343 303 286 183 204 228 233 251 273 278 282 279 284 287 288 284 286 286 277 278 281 286 289 288 288 287 290 290 296 296 295 288 286 279 282 292 284 254 244 239 231
27 5 356 342 344 309 256 246 257 262 256 252 257 272 270 275 271 272 281 284 277 272 269 269 271 277 280 282 273 269 277 281 300 312 305 300 300 286 279 286 276 251 244
356 342 354 346 355 344 340 326 296 264 258 249 246 247 249 251 258 258 264 269 273 278 275 270 269 266 270 276 278 281 284 315 305 299 297 293 285 283 287 279 279 280 258
336 342 348 339 331 321 306 294 287 283 269 261 248 243 248 260 264 261 258 256 261 265 261 268 265 264 268 274 275 270 274 283 288 288 293 294 294 286 283 286 282 283 287
319 344 350 339 319 300 306 314 312 305 286 274 279 275 287 287 279 273 272 265 259 260 267 264 260 263 270 273 276 279 247 251 263 276 283 288 293 289 285 283 283 264 278
340 345 332 321 311 317 309 304 304 310 311 295 294 284 302 284 271 272 273 272 271 269 263 263 260 260 258 275 281 281 255 244 249 258 268 278 286 298 301 301 315 306 287
336 325 313 307 308 309 310 307 307 305 299 288 292 292 284 264 251 255 260 265 260 257 256 259 260 257 266 271 275 275 258 244 244 252 252 251 272 277 286 292 288 286 280
307 300 297 299 299 299 297 297 304 304 304 298 287 290 275 272 267 266 266 264 261 265 262 264 264 259 267 268 269 268 252 245 246 244 252 247 250 261 277 284 283 285 279
300 297 291 285 289 286 278 285 288 292 290 287 275 265 262 264 267 265 267 265 260 265 270 271 267 262 266 268 265 269 239 240 249 250 252 260 262 256 264 283 284 289 293
273 272 277 278 276 277 280 279 278 277 277 271 272 264 263 260 263 265 263 263 261 262 263 267 274 271 264 269 271 271 267 241 238 246 264 258 271 278 279 278 269 273 288
271 273 274 276 281 279 281 283 280 274 271 268 264 262 270 269 276 275 270 264 263 258 260 262 267 266 265 263 265 265 262 247 243 251 255 256 267 273 277 288 285 282 280
278 274 274 279 283 282 281 286 284 289 287 280 270 268 269 268 267 269 272 274 268 259 258 258 262 267 270 261 261 262 268 268 268 251 251 256 258 267 275 275 277 282 276
282 286 287 285 287 294 293 286 288 289 290 280 276 279 278 283 280 274 269 267 267 268 266 266 265 262 261 259 256 247 254 271 276 298 295 284 280 278 280 284 275 260 253
287 286 286 290 293 293 289 290 288 288 287 285 279 278 279 278 279 274 273 273 271 266 273 272 273 273 271 271 275 272 262 252 265 279 272 267 270 267 261 257 247 244 251
288 287 286 289 288 288 288 288 286 286 285 282 280 277 280 280 277 275 276 271 272 275 276 277 272 272 270 271 270 273 275 275 277 273 266 263 260 257 255 261 269 242 249